Hourly Weather Roundup
Issued by NWS Central Illinois

Home | Current Version | Previous Version | Text Only | Print | Product List | Glossary On
Versions: 1 2 3 4 5 6 7 8 9 10 11 12 13 14 15 16 17 18 19 20 21 22 23 24 25 26 27 28 29 30 31 32 33 34 35 36 37 38 39 40 41 42 43 44 45 46 47 48 49 50
000
NZUS43 KILX 261510
HWRILX

AREA WEATHER ROUNDUP
NATIONAL WEATHER SERVICE, LINCOLN IL
1000 AM CDT TUE MAY 26 2015


CITY           SKY/WX    TMP DP  RH WIND       PRES   REMARKS
BLOOMINGTON    CLOUDY    71  68  90 S18G28    29.85F
CHAMPAIGN      CLOUDY    74  65  73 S25G32    29.89F
DANVILLE       CLOUDY    72  65  80 SE16G22   29.89F
DECATUR        CLOUDY    72  67  84 S17G24    29.86F
EFFINGHAM      DRIZZLE   70  65  86 SE10G17   29.93F
FLORA          CLOUDY    72  66  81 S17G25    29.93F
GALESBURG      LGT RAIN  65  64  94 S9        29.79R
JACKSONVILLE   PTSUNNY   73  66  80 S14G20    29.82F
LACON          RAIN      70  66  88 SE16G26   29.78F
LAWRENCEVILLE  CLOUDY    76  66  71 S20G25    29.96S
LITCHFIELD     RAIN      66  63  90 SW10      29.88R
$$


CITY           SKY/WX    TMP DP  RH WIND       PRES   REMARKS
LINCOLN        LGT RAIN  72  67  87 S16G29    29.81S
MACOMB         CLOUDY    66  64  94 S9        29.81F
MATTOON        LGT RAIN  70  66  87 S16G24    29.91R
MT CARMEL AP   CLOUDY    77  64  65 S16G24    29.95R
OLNEY-NOBLE AP CLOUDY    72  64  78 S15G22    29.94S
PARIS          CLOUDY    74  67  79 SE18G24   29.92F
PEORIA         LGT RAIN  67  64  90 S10G21    29.83R FOG
PONTIAC        CLOUDY    73  68  87 SE20      29.85F
RANTOUL        CLOUDY    75  67  76 S22G31    29.89F
ROBINSON       CLOUDY    73  65  75 S14G22    29.95S
SPRINGFIELD    CLOUDY    69  62  78 SW14G22   29.84F
TAYLORVILLE    LGT RAIN  68  66  94 S21G26    29.86R
$$

...REGIONAL REPORTS...


CITY           SKY/WX    TMP DP  RH WIND       PRES   REMARKS
CHICAGO O`HARE CLOUDY    71  65  81 S10       29.88F
KANKAKEE       CLOUDY    71  66  84 SE14G22   29.89F
MOLINE         RAIN      66  63  90 S10G20    29.76S FOG
MOUNT VERNON   CLOUDY    75  64  69 S22       29.94S
PITTSFIELD     MOSUNNY   72  63  74 SW15G25   29.83S
QUINCY         CLOUDY    69  63  81 SW24      29.80R
ROCKFORD       CLOUDY    71  64  78 SE10      29.83F
$$


CITY           SKY/WX    TMP DP  RH WIND       PRES   REMARKS
BURLINGTON     CLOUDY    68  65  90 S15       29.76S
CEDAR RAPIDS   CLOUDY    66  65  96 S12       29.71F
DES MOINES     LGT RAIN  63  59  87 W5        29.78R FOG
KIRKSVILLE     CLOUDY    66  61  84 W10G21    29.81R
OTTUMWA        LGT RAIN  63  62  97 NW14G21   29.70S FOG
ST LOUIS       PTSUNNY   75  63  64 SW18G29   29.88S
$$


CITY           SKY/WX    TMP DP  RH WIND       PRES   REMARKS
TERRE HAUTE    PTSUNNY   74  66  76 S15G23    29.94F
EVANSVILLE     CLOUDY    75  66  73 S14G22    29.98R
INDIANAPOLIS   MOSUNNY   77  65  66 S17G23    29.98F
LAFAYETTE      CLOUDY    73  64  73 S13G25    29.94F
MADISON        CLOUDY    70  65  84 SE13      29.79F THUNDER
MILWAUKEE      PTSUNNY   71  64  78 S16       29.87F
$$





USA.gov is the U.S. government's official web portal to all federal, state and local government web resources and services.